TimeCDT,TemperatureF,Dew PointF,Humidity,Sea Level PressureIn,VisibilityMPH,Wind Direction,Wind SpeedMPH,Gust SpeedMPH,PrecipitationIn,Events,Conditions,WindDirDegrees,DateUTC
12:13 AM,28.4,26.6,93,29.87,10.0,NNW,3.5,-,N/A,,Mostly Cloudy,330,2014-03-19 05:13:00
12:34 AM,28.4,26.6,93,29.87,7.0,NW,4.6,-,N/A,,Mostly Cloudy,320,2014-03-19 05:34:00
12:53 AM,28.4,24.8,86,29.87,7.0,NW,4.6,-,N/A,,Mostly Cloudy,320,2014-03-19 05:53:00
1:13 AM,28.4,24.8,86,29.87,10.0,NNW,4.6,-,N/A,,Overcast,330,2014-03-19 06:13:00
1:34 AM,28.4,24.8,86,29.86,10.0,NNW,5.8,-,N/A,,Overcast,330,2014-03-19 06:34:00
1:53 AM,30.2,24.8,80,29.86,10.0,NNW,6.9,-,N/A,,Overcast,330,2014-03-19 06:53:00
2:14 AM,30.2,24.8,80,29.86,10.0,NW,5.8,-,N/A,,Overcast,320,2014-03-19 07:14:00
2:33 AM,28.4,24.8,86,29.87,10.0,NW,6.9,-,N/A,,Overcast,310,2014-03-19 07:33:00
2:53 AM,30.2,24.8,80,29.86,10.0,NW,6.9,-,N/A,,Overcast,320,2014-03-19 07:53:00
3:13 AM,28.4,23.0,80,29.86,10.0,NW,9.2,-,N/A,,Overcast,320,2014-03-19 08:13:00
3:33 AM,28.4,23.0,80,29.86,10.0,NW,9.2,-,N/A,,Overcast,320,2014-03-19 08:33:00
3:54 AM,28.4,23.0,80,29.86,10.0,NW,9.2,-,N/A,,Overcast,320,2014-03-19 08:54:00
4:13 AM,28.4,23.0,80,29.86,10.0,NW,8.1,-,N/A,,Overcast,320,2014-03-19 09:13:00
4:33 AM,28.4,23.0,80,29.86,10.0,NW,8.1,-,N/A,,Overcast,310,2014-03-19 09:33:00
4:54 AM,28.4,23.0,80,29.87,10.0,NW,9.2,-,N/A,,Overcast,310,2014-03-19 09:54:00
5:13 AM,28.4,23.0,80,29.87,10.0,NW,10.4,-,N/A,,Overcast,320,2014-03-19 10:13:00
5:33 AM,28.4,23.0,80,29.87,10.0,NW,13.8,17.3,N/A,,Overcast,320,2014-03-19 10:33:00
5:53 AM,28.4,23.0,80,29.88,10.0,NNW,10.4,-,N/A,,Overcast,330,2014-03-19 10:53:00
6:13 AM,28.4,23.0,80,29.88,10.0,NW,11.5,-,N/A,,Overcast,320,2014-03-19 11:13:00
6:33 AM,30.2,21.2,69,29.88,10.0,NNW,12.7,17.3,N/A,,Overcast,340,2014-03-19 11:33:00
6:53 AM,28.4,21.2,74,29.89,10.0,NNW,8.1,-,N/A,,Overcast,330,2014-03-19 11:53:00
7:13 AM,28.4,23.0,80,29.89,10.0,WNW,8.1,-,N/A,,Overcast,300,2014-03-19 12:13:00
7:34 AM,28.4,26.6,93,29.90,7.0,WNW,11.5,-,N/A,,Overcast,300,2014-03-19 12:34:00
7:53 AM,28.4,26.6,93,29.90,5.0,NW,10.4,-,N/A,,Mostly Cloudy,310,2014-03-19 12:53:00
8:13 AM,28.4,26.6,93,29.90,5.0,NW,10.4,-,N/A,,Mostly Cloudy,310,2014-03-19 13:13:00
8:33 AM,28.4,26.6,93,29.90,5.0,WNW,10.4,-,N/A,,Overcast,300,2014-03-19 13:33:00
8:53 AM,28.4,26.6,93,29.90,5.0,WNW,11.5,-,N/A,,Overcast,300,2014-03-19 13:53:00
9:14 AM,28.4,26.6,93,29.91,4.0,WNW,11.5,-,N/A,,Mostly Cloudy,300,2014-03-19 14:14:00
9:33 AM,28.4,24.8,86,29.91,7.0,WNW,13.8,-,N/A,,Overcast,300,2014-03-19 14:33:00
9:53 AM,28.4,24.8,86,29.92,5.0,NW,10.4,-,N/A,,Overcast,310,2014-03-19 14:53:00
10:14 AM,28.4,24.8,86,29.92,7.0,WNW,10.4,-,N/A,,Overcast,290,2014-03-19 15:14:00
10:33 AM,28.4,24.8,86,29.93,7.0,WNW,11.5,-,N/A,,Mostly Cloudy,290,2014-03-19 15:33:00
10:53 AM,28.4,24.8,86,29.93,7.0,WNW,12.7,-,N/A,,Mostly Cloudy,290,2014-03-19 15:53:00
11:13 AM,30.2,24.8,80,29.93,10.0,WNW,12.7,-,N/A,,Scattered Clouds,290,2014-03-19 16:13:00
11:33 AM,30.2,24.8,80,29.93,7.0,WNW,13.8,-,N/A,,Clear,290,2014-03-19 16:33:00
11:53 AM,30.2,24.8,80,29.94,7.0,WNW,12.7,-,N/A,,Clear,290,2014-03-19 16:53:00
12:13 PM,30.2,24.8,80,29.94,7.0,WNW,12.7,-,N/A,,Clear,290,2014-03-19 17:13:00
12:33 PM,32.0,24.8,75,29.94,10.0,WNW,12.7,-,N/A,,Clear,290,2014-03-19 17:33:00
12:53 PM,32.0,24.8,75,29.94,10.0,West,12.7,-,N/A,,Clear,270,2014-03-19 17:53:00
1:13 PM,33.8,24.8,70,29.94,10.0,WNW,15.0,-,N/A,,Clear,290,2014-03-19 18:13:00
1:34 PM,33.8,24.8,70,29.94,10.0,WNW,13.8,-,N/A,,Clear,290,2014-03-19 18:34:00
1:53 PM,33.8,24.8,70,29.94,10.0,West,13.8,-,N/A,,Clear,270,2014-03-19 18:53:00
2:13 PM,33.8,24.8,70,29.93,10.0,West,13.8,-,N/A,,Clear,280,2014-03-19 19:13:00
2:34 PM,33.8,26.6,75,29.94,10.0,WNW,11.5,-,N/A,,Scattered Clouds,290,2014-03-19 19:34:00
2:53 PM,33.8,24.8,70,29.94,10.0,West,12.7,-,N/A,,Scattered Clouds,280,2014-03-19 19:53:00
3:13 PM,33.8,24.8,70,29.94,10.0,West,15.0,-,N/A,,Mostly Cloudy,280,2014-03-19 20:13:00
3:34 PM,33.8,26.6,75,29.93,10.0,West,13.8,-,N/A,,Overcast,280,2014-03-19 20:34:00
3:53 PM,33.8,26.6,75,29.93,10.0,West,12.7,-,N/A,,Overcast,280,2014-03-19 20:53:00
4:13 PM,33.8,24.8,70,29.93,10.0,West,15.0,-,N/A,,Overcast,280,2014-03-19 21:13:00
4:33 PM,33.8,24.8,70,29.93,10.0,WNW,15.0,-,N/A,,Overcast,290,2014-03-19 21:33:00
4:53 PM,33.8,24.8,70,29.94,10.0,WNW,15.0,-,N/A,,Overcast,290,2014-03-19 21:53:00
5:13 PM,33.8,24.8,70,29.94,10.0,WNW,12.7,-,N/A,,Overcast,290,2014-03-19 22:13:00
5:33 PM,33.8,24.8,70,29.94,10.0,WNW,11.5,-,N/A,,Overcast,300,2014-03-19 22:33:00
5:53 PM,33.8,24.8,70,29.94,10.0,NW,8.1,-,N/A,,Mostly Cloudy,310,2014-03-19 22:53:00
6:13 PM,33.8,26.6,75,29.94,10.0,NW,6.9,-,N/A,,Mostly Cloudy,310,2014-03-19 23:13:00
6:33 PM,33.8,26.6,75,29.94,10.0,WNW,5.8,-,N/A,,Overcast,300,2014-03-19 23:33:00
6:53 PM,33.8,26.6,75,29.94,10.0,WNW,4.6,-,N/A,,Overcast,300,2014-03-19 23:53:00
7:13 PM,32.0,26.6,80,29.94,10.0,West,3.5,-,N/A,,Overcast,280,2014-03-20 00:13:00
7:33 PM,30.2,24.8,80,29.94,10.0,West,4.6,-,N/A,,Mostly Cloudy,260,2014-03-20 00:33:00
7:53 PM,30.2,24.8,80,29.95,10.0,West,6.9,-,N/A,,Scattered Clouds,270,2014-03-20 00:53:00
8:14 PM,28.4,24.8,86,29.95,10.0,WSW,6.9,-,N/A,,Clear,240,2014-03-20 01:14:00
8:33 PM,26.6,24.8,93,29.96,10.0,WSW,6.9,-,N/A,,Clear,240,2014-03-20 01:33:00
8:53 PM,26.6,26.6,100,29.96,10.0,WSW,5.8,-,N/A,,Clear,240,2014-03-20 01:53:00
9:13 PM,28.4,26.6,93,29.96,10.0,WSW,3.5,-,N/A,,Clear,250,2014-03-20 02:13:00
9:33 PM,26.6,24.8,93,29.96,10.0,WSW,5.8,-,N/A,,Scattered Clouds,240,2014-03-20 02:33:00
9:53 PM,24.8,24.8,100,29.96,10.0,SW,4.6,-,N/A,,Clear,220,2014-03-20 02:53:00
10:13 PM,24.8,24.8,100,29.96,10.0,SW,5.8,-,N/A,,Scattered Clouds,220,2014-03-20 03:13:00
10:33 PM,24.8,24.8,100,29.96,10.0,SW,3.5,-,N/A,,Scattered Clouds,220,2014-03-20 03:33:00
10:53 PM,26.6,24.8,93,29.96,5.0,WSW,3.5,-,N/A,,Clear,240,2014-03-20 03:53:00
11:13 PM,26.6,24.8,93,29.96,4.0,SW,4.6,-,N/A,,Mostly Cloudy,230,2014-03-20 04:13:00
11:33 PM,26.6,26.6,100,29.96,7.0,SW,4.6,-,N/A,,Overcast,230,2014-03-20 04:33:00
11:53 PM,26.6,26.6,100,29.96,7.0,SW,3.5,-,N/A,,Overcast,230,2014-03-20 04:53:00